Probability
0 0 0 0 0 0 0 0 0 0 0 0 0 0 0 0 0 0 0 0 0 0 0 0 0 0 1 2 2 3 3 3 1 0 0 0 0 1 2 4 4 3 1
0 0 0 0 0 0 0 0 0 0 0 0 0 0 0 0 0 0 0 0 0 0 0 0 0 0 0 1 1 3 3 3 2 1 0 0 0 0 1 3 3 2 1
0 0 0 0 0 0 0 0 0 0 0 0 0 0 0 0 0 0 0 0 0 0 0 0 0 0 0 0 1 2 3 3 3 1 0 0 0 0 0 1 1 1 1
0 0 0 0 0 0 0 0 0 0 0 0 0 0 0 0 0 0 0 0 0 0 0 0 0 0 0 0 0 1 3 3 3 2 1 0 0 0 0 1 1 0 1
0 0 0 0 0 0 0 0 0 0 0 0 0 0 0 0 0 0 0 0 0 0 0 0 0 0 0 0 0 1 2 3 3 2 1 0 0 0 0 1 1 1 1
0 0 0 0 0 0 0 0 0 0 0 0 0 0 0 0 0 0 0 0 0 0 0 0 0 0 0 0 0 0 1 3 3 3 1 0 0 0 0 1 2 1 2
0 0 0 0 0 0 0 0 0 0 0 0 0 0 0 0 0 0 0 0 0 0 0 0 0 0 0 0 0 0 1 2 3 3 2 1 0 0 0 1 2 2 2
0 0 0 0 0 0 0 0 0 0 0 0 0 0 0 0 0 0 0 0 0 0 0 0 0 0 0 0 0 0 0 1 1 3 3 2 1 0 0 1 3 3 2
0 0 0 0 0 0 0 0 0 0 0 0 0 0 0 0 0 0 0 0 0 0 0 0 0 0 0 0 0 0 0 0 1 2 2 2 1 0 0 2 3 4 4
0 0 0 0 0 0 0 0 0 0 0 0 0 0 0 0 0 0 0 0 0 0 0 0 0 0 0 0 0 0 0 0 0 1 1 1 0 0 0 1 3 4 3
0 0 0 0 0 0 0 0 0 0 0 0 0 0 0 0 0 0 0 0 0 0 0 0 0 0 0 0 0 0 0 0 0 0 0 0 0 0 0 1 2 2 1
0 0 0 0 0 0 0 0 0 0 0 0 0 0 0 0 0 0 0 0 0 0 0 0 0 0 0 0 0 0 0 0 0 0 0 0 0 0 0 1 1 1 0
0 0 0 0 0 0 0 0 0 0 0 0 0 0 0 0 0 0 0 0 0 0 0 0 0 0 0 0 0 0 0 0 0 0 0 0 0 0 0 0 0 0 0
0 0 0 0 0 0 0 0 0 0 0 0 0 0 0 0 0 0 0 0 0 0 0 0 0 0 0 0 0 0 0 0 0 0 0 0 0 0 0 0 0 0 0
0 0 0 0 0 0 0 0 0 0 0 0 0 0 0 0 0 0 0 0 0 0 0 0 0 0 0 0 0 0 0 0 0 0 0 0 0 0 0 0 0 0 0
0 0 0 0 0 0 0 0 0 0 0 0 0 0 0 0 0 0 0 0 0 0 0 0 0 0 0 0 0 0 0 0 0 0 0 0 0 0 0 0 0 0 0
0 0 0 0 0 0 0 0 0 0 0 0 0 0 0 0 0 0 0 0 0 0 0 0 0 0 0 0 0 0 0 0 0 0 0 0 0 0 0 0 0 0 0
0 0 0 0 0 0 0 0 0 0 0 0 0 0 0 0 0 0 0 0 0 0 0 0 0 0 0 0 0 0 0 0 0 0 0 0 0 0 0 0 0 0 0
0 0 0 0 0 0 0 0 0 0 0 0 0 0 0 0 0 0 0 0 0 0 0 0 0 0 0 0 0 0 0 0 0 0 0 0 0 0 0 0 0 0 0
0 0 0 0 0 0 0 0 0 0 0 0 0 0 0 0 0 0 0 0 0 0 0 0 0 0 0 0 0 0 0 0 0 0 0 0 0 0 0 0 0 0 0
0 0 0 0 0 0 0 0 0 0 0 0 0 0 0 0 0 0 0 0 0 0 0 0 0 0 0 0 0 0 0 0 0 0 0 0 0 0 0 0 0 0 0
0 0 0 0 0 0 0 0 0 0 0 0 0 0 0 0 0 0 0 0 0 0 0 0 0 0 0 0 0 0 0 0 0 0 0 0 0 0 0 0 0 0 0
0 0 0 0 0 0 0 0 0 0 0 0 0 0 0 0 0 0 0 0 0 0 0 0 0 0 0 0 0 0 0 0 0 0 0 0 0 0 0 0 0 0 0
0 0 0 0 0 0 0 0 0 0 0 0 0 0 0 0 0 0 0 0 0 0 0 0 0 0 0 0 0 0 0 0 0 0 0 0 0 0 0 0 0 0 0
0 0 0 0 0 0 0 0 0 0 0 0 0 0 0 0 0 0 0 0 0 0 0 0 0 0 0 0 0 0 0 0 0 0 0 0 0 0 0 0 0 0 0
0 0 0 0 0 0 0 0 0 0 0 0 0 0 0 0 0 0 0 0 0 0 0 0 0 0 0 0 0 0 0 0 0 0 0 0 0 0 0 0 0 0 0
Wind_Speed
1 1 1 1 1 1 1 1 1 2 1 1 1 1 1 2 1 1 1 2 3 4 4 4 4 4 4 4 4 3 3 3 2 2 2 2 3 3 3 2 2 2 2
1 1 1 1 1 1 1 1 1 1 1 1 1 1 1 1 1 1 1 1 2 3 4 5 5 5 5 4 4 4 3 4 3 2 2 2 2 3 4 3 2 2 2
1 1 1 1 0 1 1 1 1 1 1 1 1 1 1 1 1 1 1 1 1 2 4 5 5 5 5 5 4 5 4 4 4 3 3 2 2 3 3 3 3 2 2
2 2 1 1 1 1 1 0 0 1 1 1 1 1 1 1 1 1 1 1 1 1 2 5 5 6 6 5 5 5 5 5 5 4 3 3 3 3 3 3 3 3 3
2 2 1 1 1 1 1 1 1 1 1 1 1 1 1 0 1 1 1 1 1 1 1 3 5 6 6 6 6 5 5 5 5 4 4 4 4 4 4 4 3 3 3
2 2 1 1 1 1 1 1 1 1 0 1 1 2 2 1 1 1 1 1 1 1 1 2 2 3 6 6 6 6 6 5 5 5 5 5 5 5 5 5 4 4 4
2 2 1 1 1 1 1 1 1 1 1 1 1 2 2 2 1 1 1 1 1 1 1 1 1 1 2 5 6 6 6 6 6 6 6 6 6 6 6 6 6 5 5
2 1 1 1 1 1 1 1 1 0 0 1 1 1 2 2 1 1 1 1 1 1 1 2 1 2 2 1 3 6 7 7 6 6 6 7 7 7 7 7 6 5 6
2 1 2 1 1 1 1 0 0 1 1 0 1 0 0 1 3 2 2 1 1 1 2 1 2 2 2 1 1 4 6 7 7 6 7 7 7 7 8 8 7 6 6
1 1 2 2 1 1 1 1 0 0 1 1 1 1 1 0 1 3 2 1 1 2 2 2 2 2 2 1 2 4 5 6 7 7 7 7 8 8 9 9 8 7 7
1 2 2 2 2 1 1 1 1 1 1 1 1 1 1 1 1 1 3 3 3 2 2 2 2 2 2 1 1 3 5 6 6 7 7 8 8 8 9 9 8 8 8
1 1 1 1 2 2 2 2 2 2 1 1 1 0 0 1 1 1 3 3 4 3 3 2 2 2 1 1 2 4 5 6 6 7 7 8 8 8 8 9 8 8 8
1 1 1 1 1 2 2 2 2 2 2 2 2 2 1 2 1 1 2 3 4 3 2 2 2 1 2 1 2 5 5 6 7 7 7 7 8 8 9 9 8 8 8
2 1 1 1 1 1 1 2 2 2 2 2 2 2 2 2 1 1 1 2 3 3 3 3 2 1 1 2 3 5 3 7 7 7 7 8 8 8 9 8 8 8 8
1 2 1 1 1 1 2 2 2 2 2 2 3 3 2 2 2 2 2 2 2 3 4 3 2 2 2 2 4 3 3 6 7 7 8 8 8 8 8 8 8 8 8
2 2 2 1 2 2 2 2 2 3 3 3 2 3 3 2 2 2 2 2 2 3 4 3 3 4 4 4 5 4 4 7 8 8 8 8 8 9 9 8 8 7 7
1 2 2 2 2 2 2 3 3 3 3 3 3 3 4 3 2 2 2 2 2 2 5 5 4 4 4 4 4 3 3 3 4 8 8 9 9 9 8 8 8 8 8
1 2 2 2 2 2 2 3 4 3 4 4 4 4 4 3 3 3 3 3 3 3 4 6 5 4 5 5 4 3 4 3 3 7 8 9 9 8 8 8 7 8 8
1 2 2 2 2 3 3 4 4 4 4 4 4 5 4 4 4 3 3 3 3 3 3 4 5 4 4 4 4 4 4 3 4 5 6 7 8 8 8 7 7 7 7
2 2 2 2 2 3 3 4 4 4 4 5 5 5 5 5 5 5 4 4 3 3 3 4 4 4 4 3 3 3 4 3 4 3 4 5 6 6 7 6 6 6 7
2 2 2 2 3 3 3 4 4 4 4 5 5 5 5 6 7 6 4 4 4 4 4 4 4 4 4 3 3 3 4 4 4 2 3 3 3 2 3 5 6 6 6
2 2 3 3 3 3 5 6 5 4 5 5 5 5 5 5 6 7 8 7 6 6 5 5 5 5 6 5 4 3 4 4 4 2 2 4 2 3 3 3 6 7 6
2 3 3 3 4 4 6 6 6 5 5 5 5 5 4 4 4 4 6 7 7 8 8 6 7 7 6 5 4 5 5 5 5 3 3 5 3 4 3 4 7 7 6
3 3 3 3 4 4 6 7 7 5 5 4 4 5 5 4 4 4 4 4 5 6 7 6 6 6 6 5 5 5 5 5 4 3 2 4 3 4 4 3 6 7 7
3 3 3 3 4 5 6 7 6 4 4 4 4 4 4 5 7 7 5 5 6 5 6 7 8 8 8 8 6 3 3 2 4 3 2 2 3 4 3 3 3 6 7
3 3 4 3 4 5 6 7 6 3 4 4 4 4 6 7 8 7 5 5 6 6 4 4 5 6 5 5 6 4 3 3 3 3 2 1 2 3 3 2 1 2 3
Wind_Direction
90 79 59 48 44 58 63 0 11 19 27 43 43 45 25 22 26 39 61 37 17 3 351 343 340 337 337 340 340 337 345 340 328 336 356 1 360 356 360 350 348 359 20
94 92 83 60 34 34 50 11 4 12 357 17 26 21 12 22 22 11 58 30 4 347 340 338 334 331 328 330 336 328 323 328 310 311 323 342 338 346 351 339 334 338 358
97 99 102 84 39 24 42 29 13 30 11 10 359 343 343 12 25 345 358 21 2 349 334 333 328 329 322 322 323 322 320 316 308 295 299 307 313 320 327 330 319 311 314
86 92 90 77 29 37 60 60 34 47 29 359 328 319 334 1 344 324 337 340 332 336 334 331 331 332 325 316 313 314 317 313 313 304 295 297 302 305 309 304 305 302 304
96 97 100 71 54 47 38 38 44 59 29 347 314 309 304 290 278 297 321 334 343 359 360 343 339 332 328 322 315 309 307 311 311 308 306 302 297 297 300 293 289 292 289
99 99 100 81 67 69 39 33 33 50 22 332 318 312 287 255 247 258 276 311 331 344 342 341 335 327 324 316 314 314 313 307 307 306 303 303 301 299 298 292 280 279 281
106 112 104 113 94 95 74 42 38 62 33 16 5 329 301 263 208 232 256 281 312 321 329 329 322 322 319 316 310 316 320 314 305 308 306 302 298 300 304 299 283 274 276
110 119 117 122 120 124 86 65 70 56 40 38 28 342 326 312 291 268 265 253 277 304 304 311 312 310 304 298 312 312 314 317 310 305 304 303 302 302 303 304 298 294 282
131 127 140 135 141 142 157 166 144 72 177 300 22 92 39 285 313 279 258 262 277 294 290 293 298 293 292 286 286 305 314 312 307 302 298 298 298 300 301 303 305 303 305
151 143 151 155 152 151 167 189 235 175 149 212 292 323 266 205 285 303 290 264 278 281 282 296 287 287 288 283 290 295 303 307 303 300 298 295 295 296 300 302 300 301 301
161 150 160 168 167 174 186 188 193 182 174 197 238 310 306 307 272 267 290 304 306 282 281 280 271 277 282 270 265 285 297 298 299 301 296 297 295 296 300 296 295 296 298
165 150 149 174 182 182 188 200 201 200 207 214 236 272 244 254 266 274 278 295 298 290 287 270 261 265 274 258 273 289 290 294 291 293 296 297 301 298 297 293 290 290 293
167 182 151 184 195 195 196 199 197 209 208 212 218 235 249 261 271 284 277 290 297 295 289 276 258 262 278 269 275 281 277 289 292 290 293 296 298 302 298 289 288 290 293
184 195 191 201 207 211 208 201 206 215 214 219 236 232 242 256 262 259 263 286 302 298 288 285 285 255 280 283 278 276 269 280 285 287 289 289 290 294 295 286 287 289 292
181 193 201 217 220 219 215 199 215 224 223 224 233 235 245 249 250 255 250 232 245 281 286 281 300 296 302 290 286 273 263 269 274 276 276 284 289 288 289 286 283 285 288
192 191 194 215 226 227 225 210 220 224 224 231 234 234 246 252 246 252 250 252 246 255 272 282 288 301 305 304 295 289 274 276 267 270 273 279 286 285 279 281 287 285 286
190 204 204 214 227 231 233 222 230 225 228 236 238 236 245 245 243 243 248 251 255 257 270 286 296 306 307 304 304 296 288 277 273 271 272 275 280 279 276 278 286 287 284
203 216 218 218 227 235 236 231 231 234 231 234 237 238 244 244 243 239 242 246 249 252 262 280 292 302 302 295 295 300 302 299 288 277 277 275 275 274 276 280 283 285 282
224 232 231 225 232 241 243 245 237 237 237 237 235 235 240 238 243 246 244 247 255 269 265 273 285 294 297 299 303 306 302 296 295 285 283 280 276 276 277 279 282 285 280
227 235 245 242 240 248 250 252 250 242 241 241 239 237 235 232 236 239 241 248 254 264 270 270 281 295 301 307 305 309 310 308 305 309 300 295 288 285 280 280 280 282 278
245 244 247 253 252 250 250 252 255 249 245 245 244 240 238 242 244 240 244 242 239 249 258 266 275 288 293 304 295 302 296 308 302 290 314 306 295 281 279 278 275 277 280
260 251 248 250 255 256 268 271 267 258 249 246 250 250 245 240 250 255 261 261 252 243 247 252 261 266 275 283 290 288 293 303 293 285 306 296 287 278 274 260 272 272 276
268 258 255 252 253 260 272 276 277 269 255 249 252 255 257 254 250 251 262 266 264 262 254 249 256 260 265 267 271 277 275 277 274 284 298 286 277 272 271 267 271 267 274
272 266 264 261 262 268 277 281 284 271 260 253 251 250 253 257 254 256 257 262 264 262 260 253 251 258 262 262 252 256 267 280 287 276 260 266 276 278 280 264 261 261 270
277 274 269 265 265 271 278 282 283 270 262 262 257 251 248 248 259 261 250 255 268 272 274 270 272 274 277 279 280 275 272 273 284 283 258 257 280 296 289 262 259 264 270
271 274 274 269 265 268 276 279 279 263 263 266 263 255 253 255 260 259 243 241 255 263 268 279 277 279 275 271 272 252 243 252 277 277 273 277 291 316 303 293 297 293 279